[[{"header":{"parameterUnit":"m.s-1","parameterCategory":1,"la1":30.2991,"la2":30.254,"lo1":-89.0895,"lo2":-89.0444,"dy":0.0017,"dx":0.0017,"nx":28,"ny":28,"refTime":"2025-08-04T21:00:00:Z","depth":0,"parameterNumber":2,"parameterNumberName":"U-component_of_WINDS"},"data":[0,0,0,0,0,0,0,0,0,0,0,0,0,0,0,0,0,0,0,0,0,0,0,0,0,0,0,0,0,0,0,0,0,0,0,0,0,0,0,0,0,0,0,0,0,0,0,0,0,0,0,0,0,0,0,0,0,0,-1.4091,-1.409,0,-1.4013,-1.4012,-1.4011,-1.3952,-1.3952,-1.3951,-1.3951,-1.3869,-1.3867,-1.3866,0,0,0,0,0,0,0,0,0,0,0,0,0,-1.4187,-1.4185,-1.4091,-1.409,-1.4089,-1.4013,-1.4012,-1.4011,-1.3952,-1.3952,-1.3951,-1.395,-1.3869,-1.3867,-1.3865,0,0,0,0,0,0,0,0,0,0,0,0,0,-1.413,-1.4185,-1.4091,-1.405,-1.4046,-1.4013,-1.4012,-1.401,-1.3952,-1.3952,-1.3951,-1.395,-1.387,-1.3868,-1.3865,-1.3865,0,0,-1.3857,-1.3856,0,0,0,0,0,0,0,0,-1.4134,-1.4127,-1.4057,-1.4053,-1.4048,-1.3991,-1.4015,-1.3962,-1.3953,-1.3988,-1.3951,-1.395,-1.391,-1.3904,-1.3891,-1.3861,-1.3858,-1.3857,-1.3856,-1.3854,-1.3854,0,0,0,0,0,0,0,-1.4138,-1.413,-1.406,-1.4056,-1.4051,-1.4035,-1.4027,-1.4005,-1.3954,-1.3985,-1.398,-1.3972,-1.3907,-1.3894,-1.3889,-1.3857,-1.3857,-1.3855,-1.3853,-1.3852,-1.3821,-1.3822,0,0,0,0,0,0,-1.4148,-1.4134,-1.4062,-1.4057,-1.409,-1.4034,-1.4024,-1.401,-1.3954,-1.3945,-1.3973,-1.397,-1.3899,-1.3892,-1.3886,-1.3881,-1.3855,-1.3852,-1.3851,-1.3821,-1.3822,-1.3822,0,0,0,0,0,0,-1.415,-1.4142,-1.4065,-1.4094,-1.4083,-1.4034,-1.4018,-1.4009,-1.3996,-1.3945,-1.3936,-1.3968,-1.3898,-1.3889,-1.3871,-1.3878,-1.3851,-1.3849,-1.382,-1.3821,-1.3822,-1.3873,0,0,0,0,0,0,-1.4153,-1.4143,-1.4144,-1.4095,-1.4082,-1.4052,-1.4019,-1.4008,-1.3992,-1.3987,-1.3939,-1.393,-1.3896,-1.3875,-1.3868,-1.3874,-1.3847,-1.3819,-1.382,-1.3822,-1.3871,-1.3876,-1.388,0,0,0,0,0,-1.4157,-1.4161,-1.4144,-1.4136,-1.4081,-1.4053,-1.4045,-1.4007,-1.3992,-1.3992,-1.3959,-1.3931,-1.3878,-1.3873,-1.3865,-1.387,-1.3818,-1.382,-1.3822,-1.3868,-1.3875,-1.388,0,0,0,0,0,0,-1.4212,-1.4154,-1.4134,-1.4123,-1.4093,-1.4043,-1.4041,-1.4016,-1.3989,-1.3986,-1.3939,-1.3928,-1.3914,-1.389,-1.3886,-1.3867,-1.3845,-1.3845,-1.3883,-1.3889,-1.3893,-1.3899,-1.3845,0,0,0,0,0,-1.4222,-1.4205,-1.4155,-1.415,-1.4136,-1.4091,-1.4077,-1.4051,-1.4018,-1.4005,-1.3971,-1.394,-1.3916,-1.3901,-1.3876,-1.3867,-1.3855,-1.3866,-1.3871,-1.3875,-1.3876,-1.3868,-1.3872,-1.3828,-1.3828,-1.3828,0,0,-1.4244,-1.421,-1.4202,-1.416,-1.4134,-1.4116,-1.4081,-1.4064,-1.4049,-1.4002,-1.3982,-1.3956,-1.3918,-1.3904,-1.3896,-1.3884,-1.3886,-1.3877,-1.3881,-1.3879,-1.387,-1.3874,-1.3878,-1.3829,-1.3828,-1.3828,0,0,-1.4275,-1.4248,-1.424,-1.4215,-1.4176,-1.4146,-1.4144,-1.4098,-1.4079,-1.4058,-1.4022,-1.4004,-1.3964,-1.3938,-1.392,-1.394,-1.3913,-1.3933,-1.3958,-1.3951,-1.3955,-1.3957,-1.3964,-1.3967,-1.3934,-1.3934,-1.3934,0,-1.4306,-1.4279,-1.4239,-1.4223,-1.4205,-1.4162,-1.4153,-1.413,-1.4085,-1.4073,-1.406,-1.4008,-1.398,-1.3958,-1.3963,-1.395,-1.3946,-1.3938,-1.3958,-1.396,-1.3962,-1.3967,-1.397,-1.3937,-1.3936,-1.3936,-1.3936,0,-1.4319,-1.4301,-1.4299,-1.4257,-1.4238,-1.4226,-1.4184,-1.417,-1.4145,-1.4116,-1.4095,-1.4059,-1.4026,-1.4019,-1.3994,-1.3994,-1.3987,-1.3967,-1.3943,-1.397,-1.3974,-1.3976,-1.394,-1.3939,-1.3939,-1.3938,0,0,-1.4382,-1.4318,-1.4318,-1.4298,-1.4251,-1.4236,-1.4221,-1.4189,-1.4178,-1.4148,-1.4134,-1.4101,-1.4081,-1.4061,-1.4032,-1.4026,-1.4043,-1.4006,-1.4004,-1.4013,-1.4039,-1.4055,-1.4058,-1.4025,-1.4026,-1.4026,-1.4042,0,-1.4404,-1.4377,-1.434,-1.4324,-1.4306,-1.4264,-1.4251,-1.4221,-1.4194,-1.4174,-1.4143,-1.412,-1.4097,-1.4084,-1.4076,-1.4043,-1.4048,-1.4041,-1.4011,-1.401,-1.4021,-1.406,-1.4076,-1.4093,-1.4044,-1.4044,-1.4044,0,-1.4427,-1.44,-1.4383,-1.4337,-1.4328,-1.4317,-1.4284,-1.4266,-1.423,-1.4211,-1.4188,-1.4157,-1.4139,-1.4118,-1.4092,-1.4088,-1.4073,-1.4055,-1.4055,-1.405,-1.4028,-1.4055,-1.4098,-1.41,-1.4047,-1.4046,-1.4046,0,-1.4473,-1.4432,-1.4416,-1.44,-1.4347,-1.4341,-1.4318,-1.4282,-1.4265,-1.4236,-1.4224,-1.4194,-1.4177,-1.4153,-1.4115,-1.4104,-1.4092,-1.4069,-1.4074,-1.4075,-1.4073,-1.4073,-1.4113,-1.4065,-1.4065,-1.4065,-1.4065,0,-1.4502,-1.4492,-1.4436,-1.4426,-1.4414,-1.4372,-1.4361,-1.4335,-1.4303,-1.4286,-1.4248,-1.4233,-1.4184,-1.4163,-1.4133,-1.4115,-1.4108,-1.409,-1.4082,-1.4093,-1.4095,-1.4082,-1.408,-1.4066,-1.4065,-1.4065,-1.4065,0,-1.4551,-1.4513,-1.4493,-1.4444,-1.4432,-1.4425,-1.4383,-1.4371,-1.4342,-1.4321,-1.4314,-1.4268,-1.4241,-1.42,-1.4162,-1.4141,-1.4128,-1.4115,-1.414,-1.4135,-1.4142,-1.4142,-1.4174,-1.4176,-1.4128,-1.4129,-1.4129,0,-1.4571,-1.4563,-1.4514,-1.45,-1.4479,-1.4458,-1.444,-1.4398,-1.4381,-1.434,-1.4333,-1.4303,-1.4278,-1.4237,-1.4199,-1.4169,-1.4154,-1.4168,-1.4149,-1.416,-1.4153,-1.4154,-1.4152,-1.4172,-1.4173,-1.4173,-1.4174,0,-1.4611,-1.4593,-1.4569,-1.4539,-1.4519,-1.4493,-1.4465,-1.4456,-1.4407,-1.439,-1.4362,-1.4342,-1.4303,-1.4273,-1.4238,-1.4213,-1.4185,-1.418,-1.4179,-1.419,-1.4204,-1.4196,-1.4151,-1.4179,-1.4179,-1.4178,-1.4178,-1.4178,-1.4645,-1.4636,-1.46,-1.4574,-1.4549,-1.4524,-1.451,-1.4479,-1.4456,-1.442,-1.4397,-1.437,-1.4334,-1.4283,-1.4261,-1.4239,-1.4227,-1.4226,-1.4226,-1.4226,-1.423,-1.4209,-1.4232,-1.4232,-1.4232,-1.4231,-1.4231,0,-1.4682,-1.4657,-1.4634,-1.4596,-1.4576,-1.4552,-1.452,-1.4504,-1.4482,-1.4451,-1.4426,-1.4394,-1.4365,-1.4325,-1.4293,-1.4283,-1.4269,-1.4276,-1.4276,-1.427,-1.4243,-1.4246,-1.4288,-1.4288,-1.4288,-1.4288,-1.4288,-1.4288,-1.4699,-1.4682,-1.4659,-1.4628,-1.4602,-1.4576,-1.456,-1.4536,-1.4511,-1.4477,-1.4453,-1.4427,-1.4392,-1.4357,-1.4329,-1.4318,-1.4308,-1.4318,-1.4303,-1.4278,-1.4273,-1.4268,-1.427,-1.4317,-1.4317,-1.4333,-1.4333,-1.4333]},{"header":{"parameterUnit":"m.s-1","parameterCategory":1,"la1":30.2991,"la2":30.254,"lo1":-89.0895,"lo2":-89.0444,"dy":0.0017,"dx":0.0017,"nx":28,"ny":28,"refTime":"2025-08-04T21:00:00:Z","depth":0,"parameterNumber":3,"parameterNumberName":"V-component_of_WINDS"},"data":[0,0,0,0,0,0,0,0,0,0,0,0,0,0,0,0,0,0,0,0,0,0,0,0,0,0,0,0,0,0,0,0,0,0,0,0,0,0,0,0,0,0,0,0,0,0,0,0,0,0,0,0,0,0,0,0,0,0,-0.763,-0.763,0,-0.7644,-0.7644,-0.7644,-0.7631,-0.7631,-0.763,-0.7629,-0.7643,-0.7644,-0.7645,0,0,0,0,0,0,0,0,0,0,0,0,0,-0.7591,-0.7592,-0.763,-0.763,-0.7631,-0.7644,-0.7644,-0.7645,-0.7631,-0.763,-0.763,-0.7629,-0.7643,-0.7644,-0.7645,0,0,0,0,0,0,0,0,0,0,0,0,0,-0.7607,-0.7592,-0.763,-0.7626,-0.7625,-0.7644,-0.7644,-0.7645,-0.7631,-0.763,-0.763,-0.7629,-0.7643,-0.7644,-0.7645,-0.7669,0,0,-0.7649,-0.765,0,0,0,0,0,0,0,0,-0.7606,-0.7609,-0.7626,-0.7626,-0.7626,-0.7635,-0.7636,-0.7653,-0.7631,-0.7629,-0.7629,-0.7629,-0.7641,-0.7642,-0.7647,-0.767,-0.767,-0.7649,-0.765,-0.765,-0.7651,0,0,0,0,0,0,0,-0.7605,-0.7608,-0.7636,-0.7626,-0.7626,-0.7623,-0.7624,-0.7639,-0.7639,-0.7629,-0.7628,-0.763,-0.7641,-0.7646,-0.7647,-0.767,-0.7649,-0.765,-0.7651,-0.7652,-0.7713,-0.7714,0,0,0,0,0,0,-0.7605,-0.7607,-0.7635,-0.7636,-0.7614,-0.7624,-0.7625,-0.7633,-0.7639,-0.7639,-0.7631,-0.7629,-0.7644,-0.7646,-0.7647,-0.7676,-0.765,-0.7652,-0.7652,-0.7712,-0.7713,-0.7714,0,0,0,0,0,0,-0.7604,-0.7607,-0.7635,-0.7621,-0.7625,-0.7625,-0.7634,-0.7634,-0.7638,-0.764,-0.764,-0.7636,-0.7643,-0.7646,-0.7664,-0.7676,-0.7652,-0.7653,-0.7711,-0.7713,-0.7714,-0.7733,0,0,0,0,0,0,-0.7603,-0.7607,-0.7616,-0.7622,-0.7625,-0.7651,-0.7635,-0.7634,-0.7641,-0.7639,-0.7645,-0.7645,-0.7643,-0.7662,-0.7665,-0.7677,-0.7654,-0.771,-0.7712,-0.7713,-0.7731,-0.7734,-0.7737,0,0,0,0,0,-0.7601,-0.7621,-0.7617,-0.762,-0.7637,-0.7652,-0.7654,-0.7651,-0.7642,-0.7651,-0.7652,-0.7645,-0.7674,-0.7664,-0.7667,-0.768,-0.7709,-0.7711,-0.7713,-0.7729,-0.7734,-0.7737,0,0,0,0,0,0,-0.7617,-0.7622,-0.7617,-0.7639,-0.7645,-0.765,-0.7661,-0.7656,-0.7664,-0.7662,-0.7658,-0.766,-0.7679,-0.7681,-0.767,-0.7703,-0.769,-0.7693,-0.7701,-0.7705,-0.7708,-0.7707,-0.7656,0,0,0,0,0,-0.7623,-0.7635,-0.7638,-0.7657,-0.7661,-0.766,-0.7667,-0.7664,-0.767,-0.7672,-0.7675,-0.7681,-0.7691,-0.7698,-0.7708,-0.7731,-0.7732,-0.7742,-0.7745,-0.7747,-0.775,-0.7762,-0.7766,-0.7721,-0.7721,-0.7721,0,0,-0.7636,-0.764,-0.7647,-0.7661,-0.7665,-0.7677,-0.7663,-0.7676,-0.7685,-0.7674,-0.7692,-0.7694,-0.77,-0.7721,-0.773,-0.7723,-0.7762,-0.775,-0.7752,-0.7753,-0.7764,-0.7768,-0.7772,-0.7722,-0.7722,-0.7722,0,0,-0.7665,-0.7669,-0.7685,-0.769,-0.7697,-0.7696,-0.77,-0.7705,-0.7706,-0.7724,-0.7716,-0.7726,-0.7745,-0.7749,-0.7754,-0.7785,-0.7778,-0.7788,-0.7805,-0.7816,-0.782,-0.7823,-0.7834,-0.7838,-0.779,-0.779,-0.779,0,-0.7679,-0.7698,-0.7694,-0.7708,-0.7714,-0.7705,-0.7721,-0.7726,-0.7736,-0.774,-0.7732,-0.7755,-0.7759,-0.778,-0.7787,-0.7792,-0.7796,-0.7787,-0.782,-0.7823,-0.7826,-0.7836,-0.784,-0.7791,-0.7791,-0.7791,-0.7791,0,-0.7715,-0.7728,-0.774,-0.775,-0.7757,-0.7772,-0.7771,-0.7778,-0.7775,-0.7775,-0.7793,-0.7797,-0.7807,-0.7812,-0.7809,-0.7833,-0.7828,-0.782,-0.7807,-0.7831,-0.7841,-0.7845,-0.7793,-0.7793,-0.7792,-0.7792,0,0,-0.7755,-0.7762,-0.7767,-0.7771,-0.7778,-0.7787,-0.7802,-0.7812,-0.7818,-0.7825,-0.7837,-0.7853,-0.7845,-0.7851,-0.7848,-0.7858,-0.7882,-0.7849,-0.7849,-0.7855,-0.7908,-0.7914,-0.7918,-0.7877,-0.7878,-0.7879,-0.7908,0,-0.7784,-0.7809,-0.7806,-0.783,-0.7842,-0.7833,-0.7846,-0.7851,-0.7852,-0.7862,-0.7862,-0.7873,-0.7863,-0.7866,-0.7876,-0.7877,-0.7892,-0.7875,-0.7888,-0.7889,-0.7887,-0.7923,-0.793,-0.7957,-0.7911,-0.7912,-0.7912,0,-0.7821,-0.7829,-0.7855,-0.786,-0.7864,-0.7876,-0.7885,-0.7894,-0.79,-0.7899,-0.7905,-0.7901,-0.7915,-0.7901,-0.792,-0.7908,-0.7914,-0.7915,-0.7916,-0.7917,-0.7902,-0.7925,-0.7965,-0.7969,-0.7918,-0.7918,-0.7917,0,-0.7847,-0.7865,-0.7882,-0.7886,-0.7892,-0.79,-0.7903,-0.7908,-0.7914,-0.7922,-0.7926,-0.7935,-0.794,-0.7947,-0.7945,-0.7935,-0.7965,-0.7951,-0.7964,-0.7964,-0.7971,-0.7971,-0.8012,-0.7975,-0.7975,-0.7975,-0.7974,0,-0.788,-0.7896,-0.7894,-0.7904,-0.7922,-0.7918,-0.7935,-0.7937,-0.7941,-0.7952,-0.7945,-0.7955,-0.7952,-0.7961,-0.796,-0.7976,-0.7978,-0.7978,-0.7977,-0.7978,-0.7978,-0.7982,-0.798,-0.7976,-0.7975,-0.7975,-0.7975,0,-0.7912,-0.7911,-0.7929,-0.7934,-0.7935,-0.7948,-0.7951,-0.7961,-0.7961,-0.7974,-0.7977,-0.7977,-0.7988,-0.7987,-0.7999,-0.7998,-0.8018,-0.8015,-0.8016,-0.8015,-0.8029,-0.8028,-0.8074,-0.808,-0.8039,-0.8039,-0.804,0,-0.7933,-0.7945,-0.795,-0.7957,-0.796,-0.7971,-0.7977,-0.7974,-0.7981,-0.7988,-0.7997,-0.8008,-0.8016,-0.8034,-0.8035,-0.8044,-0.8041,-0.8057,-0.8043,-0.8043,-0.8041,-0.804,-0.8041,-0.806,-0.806,-0.8061,-0.8061,0,-0.797,-0.7969,-0.7978,-0.7988,-0.7995,-0.8002,-0.8009,-0.8015,-0.8012,-0.802,-0.8031,-0.8038,-0.805,-0.8061,-0.8069,-0.8072,-0.8066,-0.8065,-0.8069,-0.807,-0.807,-0.807,-0.8023,-0.8064,-0.8064,-0.8064,-0.8064,-0.8063,-0.7996,-0.8007,-0.8012,-0.8023,-0.8027,-0.8033,-0.8043,-0.8044,-0.8053,-0.8063,-0.8061,-0.8074,-0.8079,-0.809,-0.8093,-0.8103,-0.8097,-0.8102,-0.8104,-0.8105,-0.8106,-0.8069,-0.8105,-0.8104,-0.8104,-0.8104,-0.8104,0,-0.8033,-0.8036,-0.8046,-0.8055,-0.8063,-0.8057,-0.8064,-0.8071,-0.8083,-0.8088,-0.8096,-0.8109,-0.8119,-0.8121,-0.813,-0.8137,-0.8135,-0.814,-0.8139,-0.814,-0.8111,-0.8107,-0.8142,-0.8142,-0.8142,-0.8142,-0.8142,-0.8142,-0.8053,-0.8069,-0.8069,-0.8088,-0.809,-0.8103,-0.8107,-0.8113,-0.8117,-0.8132,-0.814,-0.8141,-0.8145,-0.8154,-0.8163,-0.8163,-0.8167,-0.8173,-0.8172,-0.8145,-0.8142,-0.8138,-0.8134,-0.8174,-0.8174,-0.82,-0.82,-0.82]}]]